Погода в Камышевской

Россия / Ростовская область     47°36′55″N   41°49′28″E
темп.,
°C
ветер,
м/с
пор.,
м/с
влажн.,
%
обл.,
%
осадки,
мм/ч
давл.,
гПа
погр.,
м
18 апреля, вс
вс1800:00+8зсз33777 0.0 102143
03:00+7ссз11805 0.0 102110
06:00+7ссв11798 0.0 102010
09:00+11в2266100 0.0 1019327
12:00+14ююз3254100 0.0 10191320
15:00+9ю4689100 0.4 1018185
18:00+9ююв2390100 0.5 1017164
21:00+9вюв2291100 0.6 101783
19 апреля, пн
пн1900:00+9ю0191100 0.0 101719
03:00+9с119386 0.0 101612
06:00+9сз119277 0.0 101622
09:00+12ссв117958 0.0 1016468
12:00+13ююз327699 0.0 1016604
15:00+14ююз3376100 0.0 1014500
18:00+13юз2280100 0.0 101449
21:00+12юз118575 0.0 101410
20 апреля, вт
вт2000:00+12в2289100 0.0 101320
03:00+12вюв3594100 0.0 1012160
06:00+12вюв4899100 3.2 1010300
09:00+13вюв61396100 5.8 1007516
12:00+15ююв71284100 0.9 1007757
15:00+13юв369699 9.8 1007259
18:00+13ю2396100 1.3 100785
21:00+12ююз61383100 1.4 1008383
21 апреля, ср
ср2100:00+11юз81485100 0.0 1011792
03:00+9юз7138592 0.0 1012803
06:00+8ююз5109140 0.0 1015442
09:00+12зюз577444 0.0 1017969
12:00+14зюз6759100 0.1 10171634
15:00+14юз4768100 0.1 1018953
18:00+14юз35690 0.0 1019179
21:00+10юз22823 0.0 102122
22 апреля, чт
чт2200:00+8з22871 0.0 102111
03:00+8з118310 0.0 102210
06:00+8з1181100 0.0 102310
09:00+13зюз116572 0.0 1024405
12:00+16ююз125312 0.0 10231452
15:00+15ю2262100 0.3 1023287
18:00+15ююв116286 0.0 102312
21:00+13юв226885 0.0 102313